Location: Gellin
(53.4498°N, 14.3207°E)
Time: 23:27:57
(UTC+00:00)

ARIANE 5 R/B - Pass Details

Date: 03 March 2021
Orbit: 621 x 655 km, 98.2° (Epoch: 11 April)

Event Time Altitude Azimuth Distance (km) Brightness Sun altitude
Exits shadow 18:44:09 20° 49° (NE) 1,499 4.2 -18.5°
Drops below altitude 10° 18:47:03 10° 10° (N) 2,078 5.3 -18.9°
Sets 18:49:44 0° 354° (N) 2,996 6.4 -19.3°
